Main page
METAR-TAF:

METAR-TAF

Airports :

Venice Municipal Airport

Venice, Florida, United States

latitude: 27-04-18N, longitude: 082-26-25W, elevation: 16 ft

Current weather observation

The report was made 22 minutes ago, at 20:35 UTC
Wind 10 mph from the South/Southwest
Temperature 81°F
Humidity 70%
Pressure 30.14 in. Hg
Visibility: 5 miles
Clear sky
haze

METAR: KVNC 272035Z AUTO 21009KT 5SM HZ CLR 27/21 A3014 RMK AO2

Time: 15:57 (20:57 UTC)


TAF: missing

Weather observations and forecasts of more than 4000 airports (METAR and TAF reports).

The available stations are represented by yellow and red dots on the map.

Hover mouse over dot to see the name of the station.

Then click to see weather observations and forecasts.

To change the map : click on the green buttons with a black cross to zoom in, on the green button with a dash to zoom out, or on the green arrows for adjacent maps.


METAR-TAF: